Lewisburg, WV

10:49 AM EDT on October 21, 2017 (GMT -0400)
Greenbrier Valley

Weather History for KLWB - October, 2013

Change the Weather History Date:

Tuesday, October 29, 2013

  Actual Average Record
Temperature  
Mean Temperature 54 °F -  
Max Temperature 60 °F 62 °F 74 °F (1984)
Min Temperature 47 °F 36 °F 19 °F (2001)
Degree Days  
Heating Degree Days 12    
Growing Degree Days 4 (Base 50)    
Moisture  
Dew Point 45 °F    
Average Humidity 76    
Maximum Humidity 93    
Minimum Humidity 57    
Precipitation  
Precipitation 0.00 in - - ()
Sea Level Pressure  
Sea Level Pressure 30.32 in    
Wind  
Wind Speed 1 mph (SW)    
Max Wind Speed 7 mph    
Max Gust Speed -    
Visibility 8 miles    
Events Rain    
Averages and records for this station are not official NWS values.
T = Trace of Precipitation, MM = Missing Value Source: NWS Daily Summary

Daily Weather History Graph

Daily Weather History Graph

Search for Another Location

Airport or City:

Trip Planner

Search our weather history database for the weather conditions in past years. The results will help you decide how hot, cold, wet, or windy it might be!

Date:

Astronomy

Oct. 29, 2013 Rise Set
Actual Time 7:44 AM EDT 6:25 PM EDT
Civil Twilight 7:17 AM EDT 6:52 PM EDT
Nautical Twilight 6:46 AM EDT 7:23 PM EDT
Astronomical Twilight 6:15 AM EDT 7:54 PM EDT
Moon 2:37 AM EDT (10/29) 3:34 PM EDT (10/29)
Length of Visible Light 11h 35m
Length of Day
10h 41m
Waning Crescent, 25% of the Moon is Illuminated
Oct 29
Waning Crescent
Nov 3
New
Nov 10
First Quarter
Nov 17
Full
Nov 25
Last Quarter

Hourly Weather History & Observations

Time (EDT) Temp. Dew Point Humidity Pressure Visibility Wind Dir Wind Speed Gust Speed Precip Events Conditions
12:15 AM 47.7 °F 45.7 °F 93% 30.29 in 4.0 mi Calm Calm - N/A   Overcast
12:35 AM 47.8 °F 45.7 °F 92% 30.29 in 4.0 mi Calm Calm - N/A   Overcast
12:55 AM 47.7 °F 45.5 °F 92% 30.30 in 5.0 mi Calm Calm - N/A   Light Drizzle
1:15 AM 47.8 °F 45.5 °F 92% 30.30 in 3.0 mi Calm Calm - N/A Rain Light Rain
1:35 AM 47.5 °F 45.5 °F 93% 30.29 in 2.5 mi Calm Calm - N/A   Light Drizzle
1:55 AM 47.7 °F 45.7 °F 93% 30.30 in 3.0 mi Calm Calm - N/A   Overcast
2:15 AM 48.2 °F 46.0 °F 92% 30.30 in 4.0 mi Calm Calm - N/A   Overcast
2:35 AM 48.2 °F 46.2 °F 93% 30.30 in 3.0 mi Calm Calm - N/A   Overcast
2:55 AM 48.2 °F 46.0 °F 92% 30.30 in 4.0 mi Calm Calm - N/A   Overcast
3:15 AM 47.8 °F 45.7 °F 92% 30.30 in 2.5 mi Calm Calm - N/A   Overcast
3:35 AM 47.8 °F 45.9 °F 93% 30.31 in 3.0 mi Calm Calm - N/A   Overcast
3:55 AM 47.7 °F 45.7 °F 93% 30.31 in 3.0 mi NNE 3.5 mph - N/A   Overcast
4:15 AM 47.5 °F 45.5 °F 93% 30.31 in 2.5 mi Calm Calm - N/A   Overcast
4:35 AM 47.3 °F 45.5 °F 93% 30.31 in 2.5 mi Calm Calm - N/A   Overcast
4:55 AM 47.5 °F 45.5 °F 93% 30.32 in 3.0 mi Calm Calm - N/A   Overcast
5:15 AM 47.5 °F 45.5 °F 93% 30.32 in 2.5 mi Calm Calm - N/A   Overcast
10:35 AM 50.2 °F 47.3 °F 90% 30.38 in 7.0 mi Calm Calm - N/A   Overcast
10:55 AM 51.6 °F 47.5 °F 86% 30.37 in 7.0 mi Calm Calm - N/A   Mostly Cloudy
11:15 AM 52.2 °F 47.5 °F 84% 30.37 in 10.0 mi South 3.5 mph - N/A   Mostly Cloudy
11:35 AM 54.0 °F 48.0 °F 80% 30.37 in 10.0 mi Calm Calm - N/A   Overcast
11:55 AM 54.7 °F 46.2 °F 73% 30.36 in 10.0 mi SW 6.9 mph - N/A   Overcast
12:15 PM 54.3 °F 45.5 °F 72% 30.36 in 10.0 mi West 3.5 mph - N/A   Mostly Cloudy
12:35 PM 56.3 °F 46.8 °F 70% 30.36 in 10.0 mi SW 4.6 mph - N/A   Mostly Cloudy
12:55 PM 55.9 °F 46.0 °F 69% 30.35 in 10.0 mi SSW 3.5 mph - N/A   Overcast
1:15 PM 57.4 °F 45.5 °F 65% 30.35 in 10.0 mi SSW 5.8 mph - N/A   Scattered Clouds
1:35 PM 58.3 °F 45.5 °F 62% 30.34 in 10.0 mi SW 6.9 mph - N/A   Clear
1:55 PM 59.2 °F 45.5 °F 60% 30.34 in 10.0 mi SW 6.9 mph - N/A   Clear
2:15 PM 59.0 °F 46.2 °F 63% 30.33 in 10.0 mi SSW 5.8 mph - N/A   Clear
2:35 PM 59.2 °F 45.1 °F 60% 30.33 in 10.0 mi SSW 5.8 mph - N/A   Clear
2:55 PM 59.5 °F 45.0 °F 59% 30.32 in 10.0 mi SSW 4.6 mph - N/A   Clear
3:15 PM 60.1 °F 45.0 °F 57% 30.31 in 10.0 mi South 5.8 mph - N/A   Clear
3:35 PM 59.5 °F 44.8 °F 58% 30.31 in 10.0 mi SSW 3.5 mph - N/A   Clear
3:55 PM 59.5 °F 44.4 °F 57% 30.30 in 10.0 mi SSW 3.5 mph - N/A   Clear
4:15 PM 59.4 °F 44.2 °F 57% 30.30 in 10.0 mi Calm Calm - N/A   Clear
4:35 PM 59.2 °F 45.0 °F 59% 30.30 in 10.0 mi SSW 5.8 mph - N/A   Clear
4:55 PM 59.2 °F 45.1 °F 60% 30.30 in 10.0 mi SSW 4.6 mph - N/A   Clear
5:15 PM 59.0 °F 45.0 °F 60% 30.29 in 10.0 mi SSE 3.5 mph - N/A   Clear
5:35 PM 58.5 °F 44.6 °F 60% 30.29 in 10.0 mi Calm Calm - N/A   Clear
5:55 PM 57.7 °F 44.2 °F 61% 30.29 in 10.0 mi Calm Calm - N/A   Clear
6:15 PM 56.8 °F 44.6 °F 64% 30.30 in 10.0 mi Calm Calm - N/A   Clear
6:35 PM 56.3 °F 44.4 °F 64% 30.31 in 10.0 mi Calm Calm - N/A   Clear
6:55 PM 55.4 °F 44.4 °F 67% 30.31 in 10.0 mi Calm Calm - N/A   Clear
7:15 PM 54.5 °F 44.6 °F 69% 30.32 in 10.0 mi Calm Calm - N/A   Clear
7:35 PM 52.9 °F 44.6 °F 73% 30.31 in 10.0 mi Calm Calm - N/A   Clear
7:55 PM 52.7 °F 44.2 °F 73% 30.30 in 10.0 mi Calm Calm - N/A   Clear
8:15 PM 52.9 °F 44.1 °F 72% 30.30 in 10.0 mi Calm Calm - N/A   Clear
8:35 PM 52.9 °F 44.1 °F 72% 30.30 in 10.0 mi Calm Calm - N/A   Scattered Clouds
8:55 PM 51.8 °F 44.2 °F 75% 30.30 in 10.0 mi Calm Calm - N/A   Mostly Cloudy
9:15 PM 52.5 °F 44.6 °F 74% 30.31 in 10.0 mi Calm Calm - N/A   Overcast
9:35 PM 52.2 °F 44.6 °F 75% 30.31 in 10.0 mi Calm Calm - N/A   Overcast
9:55 PM 50.9 °F 44.2 °F 78% 30.30 in 10.0 mi Calm Calm - N/A   Mostly Cloudy
10:15 PM 50.9 °F 44.2 °F 78% 30.31 in 10.0 mi North 3.5 mph - N/A   Overcast
10:35 PM 50.9 °F 44.8 °F 80% 30.30 in 10.0 mi Calm Calm - N/A   Overcast
10:55 PM 51.8 °F 44.6 °F 76% 30.31 in 10.0 mi Calm Calm - N/A   Overcast
11:15 PM 52.2 °F 44.4 °F 75% 30.31 in 10.0 mi Calm Calm - N/A   Overcast
11:35 PM 51.6 °F 44.8 °F 77% 30.31 in 10.0 mi North 3.5 mph - N/A   Overcast
11:55 PM 51.1 °F 45.5 °F 81% 30.32 in 10.0 mi Calm Calm - N/A   Overcast